Location: K�ln
(50.9455°N, 6.9544°E)
Time: 15:44:38
(UTC+01:00)

ISS - Pass Details

Date: 16 November 2017
Orbit: 402 x 407 km, 51.6° (Epoch: 24 November)

Event Time Altitude Azimuth Distance (km) Brightness Sun altitude
Exits shadow 05:38:07 22° 180° (S) 932 -2.0 -20.5°
Drops below altitude 10° 05:39:52 10° 153° (SSE) 1,450 -0.6 -20.2°
Sets 05:42:07 0° 141° (SE) 2,306 0.7 -19.9°
